Home   Weather   Township of Fairfield   Past weeks
Flag for USA

Past Weather in Township of Fairfield, Michigan, USA — Yesterday and Last 2 Weeks

Now
80 °F

Sunny.


Feels Like: 81 °F
Forecast: 90 / 63 °F
Wind: No wind

Location: Toledo Suburban Airport

Current Time: Jul 4, 2020 at 9:27:49 pm

Latest Report: Jul 4, 2020 at 8:56 pm


Visibility: 10 mi

Pressure: 29.98 "Hg

Humidity: 54%

Dew Point: 62 °F

Location of Township of FairfieldLocation

Past Weather in Township of Fairfield — Graph

°F

Township of Fairfield Temperature Yesterday

Maximum temperature yesterday: 91 °F (at 2:15 pm)
Minimum temperature yesterday: 64 °F (at 6:16 am)
Average temperature yesterday: 79 °F

High & Low Weather Summary for the Past Weeks

 TemperatureHumidityPressure
High91 °F (Jul 3, 2:15 pm)97% (Jun 23, 8:15 am)30.05 "Hg (Jun 23, 8:15 am)
Low55 °F (Jun 25, 4:56 am)34% (Jul 2, 2:16 pm)29.62 "Hg (Jun 23, 8:15 am)
Average74 °F70%29.91 "Hg
* Reported Jun 19 7:15 pm — Jul 4 7:55 pm, Township of Fairfield. Weather by CustomWeather, © 2020

Note: Actual official high and low records may vary slightly from our data, if they occured in-between our weather recording intervals... More about our weather records

Township of Fairfield Weather History for the Previous 24 Hours

Scroll right to see more
 ConditionsComfort  
Time TempWeatherWind HumidityBarometerVisibility
7:55 pm
Sat, Jul 4
83 °FSunny.5 mph44%29.97 "Hg10 mi
7:35 pm85 °FSunny.5 mph41%29.97 "Hg10 mi
7:15 pm85 °FSunny.5 mph39%29.97 "Hg10 mi
6:55 pm85 °FSunny.6 mph38%29.98 "Hg10 mi
6:35 pm86 °FSunny.8 mph39%29.98 "Hg10 mi
6:15 pm86 °FSunny.7 mph40%29.98 "Hg10 mi
5:56 pm86 °FSunny.6 mph40%29.99 "Hg10 mi
5:35 pm87 °FSunny.8 mph39%30.00 "Hg10 mi
5:16 pm87 °FSunny.7 mph37%30.00 "Hg10 mi
4:56 pm88 °FSunny.5 mph38%30.00 "Hg10 mi
4:36 pm88 °FSunny.6 mph37%30.00 "Hg10 mi
4:15 pm87 °FSunny.5 mph38%30.01 "Hg10 mi
3:55 pm87 °FSunny.8 mph38%30.02 "Hg10 mi
3:36 pm87 °FSunny.5 mph39%30.02 "Hg10 mi
3:16 pm87 °FSunny.7 mph40%30.02 "Hg10 mi
2:56 pm87 °FSunny.6 mph40%30.02 "Hg10 mi
2:35 pm86 °FSunny.7 mph42%30.03 "Hg10 mi
2:16 pm87 °FSunny.6 mph41%30.03 "Hg10 mi
1:55 pm87 °FSunny.6 mph40%30.02 "Hg10 mi
1:36 pm86 °FSunny.5 mph42%30.02 "Hg10 mi
1:15 pm86 °FSunny.5 mph44%30.03 "Hg10 mi
12:55 pm85 °FSunny.6 mph46%30.03 "Hg10 mi
12:36 pm85 °FSunny.7 mph46%30.03 "Hg10 mi
12:15 pm83 °FSunny.8 mph49%30.03 "Hg10 mi
11:55 am83 °FSunny.6 mph51%30.03 "Hg10 mi
11:35 am83 °FSunny.6 mph51%30.03 "Hg10 mi
11:16 am83 °FSunny.8 mph51%30.03 "Hg10 mi
10:55 am83 °FSunny.8 mph54%30.03 "Hg10 mi
10:35 am81 °FSunny.7 mph55%30.03 "Hg10 mi
10:15 am81 °FSunny.7 mph61%30.03 "Hg10 mi
9:35 am78 °FSunny.7 mph67%30.03 "Hg10 mi
9:15 am77 °FSunny.6 mph72%30.03 "Hg10 mi
8:35 am75 °FSunny.8 mph75%30.03 "Hg10 mi
8:15 am74 °FSunny.6 mph78%30.03 "Hg10 mi
7:55 am73 °FSunny.No wind79%30.03 "Hg10 mi
7:35 am72 °FSunny.3 mph82%30.01 "Hg10 mi
7:15 am72 °FSunny.3 mph82%30.01 "Hg10 mi
6:55 am71 °FSunny.No wind83%30.01 "Hg10 mi
6:35 am70 °FSunny.No wind86%30.01 "Hg10 mi
6:15 am70 °FSunny.No wind85%30.01 "Hg10 mi
5:56 am71 °FClear.No wind84%30.01 "Hg10 mi
5:36 am71 °FClear.No wind83%30.00 "Hg10 mi
5:16 am72 °FClear.3 mph82%30.00 "Hg10 mi
4:56 am72 °FClear.5 mph81%30.00 "Hg10 mi
4:35 am72 °FClear.3 mph83%30.00 "Hg10 mi
4:16 am72 °FClear.3 mph84%30.00 "Hg10 mi
4:15 am72 °FClear.3 mph85%30.00 "Hg10 mi
3:55 am71 °FClear.3 mph88%30.00 "Hg10 mi
3:35 am71 °FClear.No wind91%29.99 "Hg10 mi
3:16 am70 °FClear.No wind91%30.00 "Hg10 mi
2:56 am71 °FClear.No wind90%30.00 "Hg10 mi
2:35 am71 °FClear.No wind89%30.00 "Hg10 mi
2:16 am71 °FClear.No wind90%30.00 "Hg10 mi
1:55 am71 °FClear.No wind88%30.00 "Hg10 mi
1:36 am73 °FClear.No wind85%30.00 "Hg10 mi
1:15 am73 °FClear.No wind86%30.00 "Hg10 mi
12:55 am74 °FClear.No wind84%30.00 "Hg10 mi
12:35 am74 °FPassing clouds.No wind84%29.99 "Hg10 mi
12:15 am76 °FPartly cloudy.No wind80%29.98 "Hg10 mi
11:56 pm
Fri, Jul 3
77 °FMostly cloudy.No wind77%29.98 "Hg10 mi
11:35 pm75 °FPassing clouds.6 mph83%29.98 "Hg10 mi
11:15 pm75 °FPassing clouds.No wind80%29.97 "Hg10 mi
10:55 pm75 °FClear.No wind81%29.98 "Hg10 mi
10:36 pm76 °FClear.No wind81%29.97 "Hg10 mi
10:16 pm76 °FClear.No wind81%29.97 "Hg10 mi
9:56 pm77 °FClear.No wind77%29.97 "Hg10 mi
9:16 pm80 °FClear.No wind67%29.96 "Hg10 mi
Weather by CustomWeather, © 2020

See weather overview